GW1083 Weather Reports


time (UTC)temp
C
wind
direction
speed
KPH
gust
KPH
rain 1hr
cm
rain 24hr
cm
rain mn
cm
humidity
%
barometer
mb
20260505035812 17 185 0.0 321.9 0.00 0.00 0.00 75 647.9
20260505035311 17 171 0.0 321.9 0.00 0.00 0.00 74 607.6
20260505034811 17 130 0.0 321.9 0.00 0.00 0.00 74 559.7
20260505034311 17 124 0.0 321.9 0.00 0.00 0.00 73 567.4
20260505033811 18 182 0.0 321.9 0.00 0.00 0.00 72 642.7
20260505033309 18 176 0.0 321.9 0.00 0.00 0.00 71 626.1
20260505032808 18 144 0.0 321.9 0.00 0.00 0.00 70 574.2
20260505032307 18 170 0.0 321.9 0.00 0.00 0.00 69 644.2
20260505031806 18 158 0.0 321.9 0.00 0.00 0.00 68 644.3
20260505031306 18 141 0.0 321.9 0.00 0.00 0.00 68 643.3
20260505030805 18 158 0.0 321.9 0.00 0.00 0.00 67 681.5
20260505030305 18 217 0.0 321.9 0.00 0.00 0.00 66 727.5
20260505025804 18 191 0.0 321.9 0.00 0.00 0.00 66 685.6
20260505023735 18 129 0.0 321.9 0.00 0.00 0.00 64 638.3
20260505023234 18 8 0.0 321.9 0.00 0.00 0.00 63 698.9
20260505022733 18 158 0.0 321.9 0.00 0.00 0.00 63 641.2
20260505022232 18 180 0.0 321.9 0.00 0.00 0.00 62 665.3
20260505021215 18 159 0.0 321.9 0.00 0.00 0.00 61 663.5
20260505020714 18 181 0.0 321.9 0.00 0.00 0.00 61 691.5
20260505020213 18 191 0.0 321.9 0.00 0.00 0.00 61 698.1
20260505015207 18 161 0.0 321.9 0.00 0.00 0.00 61 629.7
20260505014151 18 172 0.0 321.9 0.00 0.00 0.00 62 654.3
20260505013650 18 172 0.0 321.9 0.00 0.00 0.00 62 634.7
20260505013149 18 156 0.0 321.9 0.00 0.00 0.00 62 656.5
20260505012648 18 178 0.0 321.9 0.00 0.00 0.00 62 671.3
20260505012147 18 164 0.0 321.9 0.00 0.00 0.00 61 656.9
20260505011646 19 196 0.0 321.9 0.00 0.00 0.00 61 687.5
20260505011145 19 170 0.0 321.9 0.00 0.00 0.00 61 640.8
20260505010643 19 172 0.0 321.9 0.00 0.00 0.00 60 635.6
20260505005636 19 183 0.0 321.9 0.00 0.00 0.00 59 628.2
20260505005136 19 149 0.0 321.9 0.00 0.00 0.00 59 619.8
20260505004635 19 126 0.0 321.9 0.00 0.00 0.00 58 639.4
20260505004134 20 157 0.0 321.9 0.00 0.00 0.00 57 653.1
20260505003633 20 163 0.0 321.9 0.00 0.00 0.00 56 681.7
20260505003131 20 182 0.0 321.9 0.00 0.00 0.00 56 689.4
20260505002631 20 164 0.0 321.9 0.00 0.00 0.00 55 680.0
20260505002130 20 168 0.0 321.9 0.00 0.00 0.00 55 672.2
20260505001128 20 183 0.0 321.9 0.00 0.00 0.00 54 672.0
20260505000628 20 151 0.0 321.9 0.00 0.00 0.00 53 648.1
20260505000126 20 156 0.0 321.9 0.00 0.00 0.00 53 669.1
20260504235119 20 143 0.0 321.9 0.00 0.00 0.00 52 651.5
20260504233607 20 164 0.0 321.9 0.00 0.00 0.00 51 654.9
20260504233106 21 178 0.0 321.9 0.00 0.00 0.00 51 673.8
20260504232605 21 162 0.0 321.9 0.00 0.00 0.00 50 657.8
20260504232105 21 148 0.0 321.9 0.00 0.00 0.00 50 684.6
20260504231604 21 181 0.0 321.9 0.00 0.00 0.00 50 681.3
20260504231104 21 169 0.0 321.9 0.00 0.00 0.00 49 671.3
20260504230603 21 217 0.0 321.9 0.00 0.00 0.00 48 693.4
20260504225601 21 180 0.0 321.9 0.00 0.00 0.00 48 654.2
20260504225100 21 212 0.0 321.9 0.00 0.00 0.00 47 642.6
20260504224043 21 192 0.0 321.9 0.00 0.00 0.00 49 665.5
20260504223542 21 173 0.0 321.9 0.00 0.00 0.00 49 637.7
20260504221503 21 190 0.0 321.9 0.00 0.00 0.00 50 637.0
20260504221003 21 168 0.0 321.9 0.00 0.00 0.00 50 606.4
20260504220502 21 126 0.0 321.9 0.00 0.00 0.00 51 588.8
20260504220002 21 119 0.0 321.9 0.00 0.00 0.00 50 591.8
20260504214955 21 129 0.0 321.9 0.00 0.00 0.00 50 566.9
20260504214454 21 158 0.0 321.9 0.00 0.00 0.00 52 588.5
20260504213954 21 151 0.0 321.9 0.00 0.00 0.00 52 583.8
20260504213453 21 158 0.0 321.9 0.00 0.00 0.00 52 566.2
20260504212952 21 55 0.0 321.9 0.00 0.00 0.00 51 569.6
20260504212451 21 134 0.0 321.9 0.00 0.00 0.00 51 543.0
20260504211951 21 155 0.0 321.9 0.00 0.00 0.00 49 552.3
20260504210935 22 62 0.0 321.9 0.00 0.00 0.00 50 492.2
20260504210434 22 101 0.0 321.9 0.00 0.00 0.00 49 561.5
20260504205933 22 129 0.0 321.9 0.00 0.00 0.00 50 565.4
20260504205432 22 125 0.0 321.9 0.00 0.00 0.00 49 531.8
20260504204931 22 135 0.0 321.9 0.00 0.00 0.00 48 578.8
20260504204430 22 142 0.0 321.9 0.00 0.00 0.00 48 619.8
20260504203413 22 183 0.0 321.9 0.00 0.00 0.00 46 639.9
20260504202912 22 103 0.0 321.9 0.00 0.00 0.00 45 579.1
20260504202411 22 195 0.0 321.9 0.00 0.00 0.00 45 618.3
20260504201910 22 97 0.0 321.9 0.00 0.00 0.00 44 527.3
20260504200854 22 126 0.0 321.9 0.00 0.00 0.00 45 586.3
20260504195331 22 123 0.0 321.9 0.00 0.00 0.00 43 520.0
20260504194314 22 110 0.0 321.9 0.00 0.00 0.00 44 497.4
20260504193814 22 120 0.0 321.9 0.00 0.00 0.00 42 530.3
20260504193313 22 109 0.0 321.9 0.00 0.00 0.00 41 551.1
20260504192812 23 157 0.0 321.9 0.00 0.00 0.00 45 603.2
20260504192311 22 156 0.0 321.9 0.00 0.00 0.00 43 573.2
20260504191811 22 88 0.0 321.9 0.00 0.00 0.00 42 562.3
20260504190754 22 110 0.0 321.9 0.00 0.00 0.00 42 568.6
20260504190253 22 194 0.0 321.9 0.00 0.00 0.00 45 634.5
20260504185752 22 150 0.0 321.9 0.00 0.00 0.00 42 563.8
20260504185251 21 83 0.0 321.9 0.00 0.00 0.00 42 500.4
20260504184750 21 125 0.0 321.9 0.00 0.00 0.00 42 502.3
20260504184249 21 93 0.0 321.9 0.00 0.00 0.00 41 475.8
20260504183748 21 106 0.0 321.9 0.00 0.00 0.00 41 529.2
20260504183247 21 123 0.0 321.9 0.00 0.00 0.00 44 500.8
20260504182745 21 96 0.0 321.9 0.00 0.00 0.00 44 473.8
20260504182244 21 95 0.0 321.9 0.00 0.00 0.00 44 511.4
20260504181237 21 95 0.0 321.9 0.00 0.00 0.00 43 512.1
20260504180220 21 133 0.0 321.9 0.00 0.00 0.00 42 516.4
20260504175719 21 115 0.0 321.9 0.00 0.00 0.00 43 491.2
20260504175218 21 110 0.0 321.9 0.00 0.00 0.00 40 484.5
20260504174717 21 100 0.0 321.9 0.00 0.00 0.00 41 467.6
20260504174216 21 101 0.0 321.9 0.00 0.00 0.00 42 497.0
20260504173715 21 111 0.0 321.9 0.00 0.00 0.00 43 532.0
20260504173214 21 108 0.0 321.9 0.00 0.00 0.00 43 528.8
20260504172714 21 146 0.0 321.9 0.00 0.00 0.00 42 555.8
20260504171707 21 96 0.0 321.9 0.00 0.00 0.00 42 507.7
20260504171207 21 146 0.0 321.9 0.00 0.00 0.00 40 574.0
20260504170705 21 93 0.0 321.9 0.00 0.00 0.00 46 503.4
20260504170204 20 110 0.0 321.9 0.00 0.00 0.00 47 467.6
20260504151016 17 123 0.0 321.9 0.00 0.00 0.00 51 492.3
20260504140846 15 197 0.0 321.9 0.00 0.00 0.00 54 668.5
20260504130745 13 208 0.0 321.9 0.00 0.00 0.00 56 778.2
20260504130244 13 188 0.0 321.9 0.00 0.00 0.00 57 749.6
20260504120202 11 194 0.0 321.9 0.00 0.00 0.00 67 719.4
20260504110115 8 245 0.0 321.9 0.00 0.00 0.00 82 872.3
20260504100544 8 240 0.0 321.9 0.00 0.00 0.00 81 867.1
20260504081512 8 240 0.0 321.9 0.00 0.00 0.00 76 865.7
20260504081011 9 240 0.0 321.9 0.00 0.00 0.00 76 864.5
20260504050752 8 235 0.0 321.9 0.00 0.00 0.00 79 818.2
20260504050251 8 214 0.0 321.9 0.00 0.00 0.00 78 806.7
20260504045750 8 211 0.0 321.9 0.00 0.00 0.00 78 823.5
20260504045249 8 241 0.0 321.9 0.00 0.00 0.00 77 858.8
20260504044748 8 233 0.0 321.9 0.00 0.00 0.00 76 855.2
20260504043731 8 242 0.0 321.9 0.00 0.00 0.00 76 873.6
20260504042724 8 243 0.0 321.9 0.00 0.00 0.00 76 872.6
20260504042223 8 233 0.0 321.9 0.00 0.00 0.00 76 858.6
20260504041722 8 247 0.0 321.9 0.00 0.00 0.00 75 854.2
20260504041221 8 226 0.0 321.9 0.00 0.00 0.00 75 838.6
20260504040719 8 227 0.0 321.9 0.00 0.00 0.00 74 850.5
20260504040218 8 238 0.0 321.9 0.00 0.00 0.00 74 859.3